INTELSAT 33E DEB, 64407

Orbit data source: Space-Track

INTELSAT 33E DEB, 64407 is space debris in GEO originally from a launch on Wed, 24 Aug 2016 UTC launched from the French Guiana (FRGUI). Debris objects in space refer to the collection of defunct objects orbiting the Earth. Examples of debris include non-operational satellites, rocket bodies, and fragments generated from explosions, collisions, or faulty payload assembly.

Not visible in the next 10 days
Identifier
64407, 2016-053AM
Orbit
GEO
Last TLE update
2 days ago
Origin
Flag of UnknownINTELU (Unknown / ITSO)
Manufacturer
Boeing/ES
Mission
Spacecraft
Bus & Motor
Unknown
Mass
Unknown
Launch date (UTC)
2016-08-24 (9 years ago)
Launch vehicle
Unknown
Launch site
French Guiana (FRGUI)
Object type
Payload
Rocket body
Debris
Shape & HBR
Unknown
Radar Cross Section
RCS unknown

Expand to show TLE details & history

TLE from 2 days ago
0 INTELSAT 33E DEB
1 64407U 16053AM  25180.66534751 -.00000166  00000-0  00000-0 0  9993
2 64407   0.6646  44.4236 0332488 111.4056 205.7630  0.96093432  2274
Epoch: 2025-06-29T15:58Z
TLE epoch observation values (Epoch: 2025-06-29T15:58:06.024Z)
Latitude
-0.47408°
Longitude
-157.50934°
Altitude
38,302.208 km
Speed
2.942 km/s
True Right ascension
00h 00m 00s
True Declination
0° 28' 25"
Sunlit
Object was in daylight at epoch
Visualization orbit readout
Latitude
-0.27309°
Longitude
89.68716°
Altitude
36,991.336 km
Speed
3.032 km/s
Apparent Right ascension
16h 03m 17s
Apparent Declination
-5° 47' 11"
Sunlit
Object is in daylight
Visualization observer readout
Local Sidereal Time
21:21:23
Azimuth
258.82° W
Elevation
4.244°
Doppler factor
1
Orbital elements
Apogee altitude
38,443.536 km
Perigee altitude
35,558.912 km
Semi-major axis
43,379.361 km
Eccentricity
0.03325
Inclination
0.6646°
RAAN
44.4236°
Arg. of periapsis
111.4056°
True anomaly
Unknown
Mean anomaly
205.763°
Eccentric anomaly
Unknown
Mean motion
0.24023 °/min
Orbital period
1,498.59 mins
BSTAR
0
Loading historical data...
64407 neighbors
Loading maneuver chart data...
Loading SW <> Apogee altitude chart data...
Loading historical data...
Loading historical data...
Loading historical data...
Loading historical data...
Loading historical data...
Loading historical data...
Loading historical data...

INTELSAT 33E DEB Visibility

Observer location: undefined°, undefined°

INTELSAT 33E DEB is likely not visible in the next few days
Span
Click to sort rows by Start time (UTC) header in descending order
Start Az.
Max El. time (UTC)
Max El. Az.
Max El.
End time (UTC)
End Az.
|